| time (UTC) | temp C | wind direction | speed KPH | gust KPH | rain 1hr cm | rain 24hr cm | rain mn cm | humidity % | barometer mb |
| 20260502231454 | 15 | 232 | 0.0 | 0.0 | 0.00 | 0.00 | 2.54 | 33 | 1013.1 |
| 20260502230938 | 15 | 232 | 0.0 | 0.0 | 0.00 | 0.00 | 2.54 | 33 | 1013.0 |
| 20260502230421 | 15 | 232 | 0.0 | 0.0 | 0.00 | 0.00 | 2.54 | 33 | 1013.3 |
| 20260502225904 | 15 | 232 | 0.0 | 0.0 | 0.00 | 0.00 | 2.54 | 33 | 1013.2 |
| 20260502225345 | 15 | 232 | 0.0 | 0.0 | 0.00 | 0.00 | 2.54 | 33 | 1013.1 |
| 20260502224826 | 15 | 232 | 0.0 | 0.0 | 0.00 | 0.00 | 2.54 | 32 | 1013.3 |
| 20260502224308 | 15 | 232 | 0.0 | 0.0 | 0.00 | 0.00 | 2.54 | 32 | 1013.3 |
| 20260502223751 | 15 | 229 | 0.0 | 0.0 | 0.00 | 0.00 | 2.54 | 32 | 1013.2 |
| 20260502223234 | 15 | 228 | 0.0 | 0.0 | 0.00 | 0.00 | 2.54 | 32 | 1013.2 |
| 20260502222716 | 15 | 238 | 0.0 | 0.0 | 0.00 | 0.00 | 2.54 | 32 | 1013.2 |
| 20260502222159 | 16 | 238 | 0.0 | 0.0 | 0.00 | 0.00 | 2.54 | 32 | 1013.4 |
| 20260502221640 | 16 | 239 | 0.0 | 0.0 | 0.00 | 0.00 | 2.54 | 32 | 1013.1 |
| 20260502221124 | 16 | 234 | 0.0 | 0.0 | 0.00 | 0.00 | 2.54 | 31 | 1013.3 |
| 20260502220607 | 16 | 234 | 0.0 | 0.0 | 0.00 | 0.00 | 2.54 | 30 | 1013.2 |
| 20260502220050 | 16 | 233 | 0.0 | 0.0 | 0.00 | 0.00 | 2.54 | 30 | 1013.3 |
| 20260502215534 | 16 | 237 | 0.0 | 0.0 | 0.00 | 0.00 | 2.54 | 30 | 1013.1 |
| 20260502215017 | 16 | 229 | 0.0 | 0.0 | 0.00 | 0.00 | 2.54 | 31 | 1013.2 |
| 20260502214458 | 16 | 229 | 0.0 | 0.0 | 0.00 | 0.00 | 2.54 | 30 | 1013.2 |
| 20260502213941 | 16 | 229 | 0.0 | 0.0 | 0.00 | 0.00 | 2.54 | 30 | 1013.4 |
| 20260502213425 | 16 | 229 | 0.0 | 0.0 | 0.00 | 0.00 | 2.54 | 30 | 1013.3 |
| 20260502212908 | 16 | 229 | 0.0 | 0.0 | 0.00 | 0.00 | 2.54 | 30 | 1013.2 |
| 20260502212352 | 16 | 229 | 0.0 | 0.0 | 0.00 | 0.00 | 2.54 | 29 | 1013.1 |
| 20260502211835 | 16 | 228 | 0.0 | 0.0 | 0.00 | 0.00 | 2.54 | 29 | 1013.1 |
| 20260502211318 | 16 | 229 | 0.0 | 0.0 | 0.00 | 0.00 | 2.54 | 29 | 1012.9 |
| 20260502210802 | 16 | 229 | 0.0 | 0.0 | 0.00 | 0.00 | 2.54 | 30 | 1013.3 |
| 20260502210245 | 16 | 229 | 0.0 | 0.0 | 0.00 | 0.00 | 2.54 | 29 | 1013.2 |
| 20260502205728 | 16 | 229 | 0.0 | 0.0 | 0.00 | 0.00 | 2.54 | 29 | 1013.2 |
| 20260502205212 | 16 | 229 | 0.0 | 0.0 | 0.00 | 0.00 | 2.54 | 30 | 1013.1 |
| 20260502204655 | 17 | 229 | 0.0 | 0.0 | 0.00 | 0.00 | 2.54 | 30 | 1013.2 |
| 20260502204139 | 17 | 229 | 0.0 | 0.0 | 0.00 | 0.00 | 2.54 | 30 | 1012.9 |
| 20260502203622 | 17 | 229 | 0.0 | 0.0 | 0.00 | 0.00 | 2.54 | 29 | 1013.4 |
| 20260502203106 | 17 | 229 | 0.0 | 0.0 | 0.00 | 0.00 | 2.54 | 30 | 1013.3 |
| 20260502202549 | 17 | 229 | 0.0 | 0.0 | 0.00 | 0.00 | 2.54 | 29 | 1013.1 |
| 20260502202032 | 17 | 229 | 0.0 | 0.0 | 0.00 | 0.00 | 2.54 | 29 | 1013.2 |
| 20260502201516 | 17 | 229 | 0.0 | 0.0 | 0.00 | 0.00 | 2.54 | 28 | 1013.1 |
| 20260502200959 | 17 | 229 | 0.0 | 0.0 | 0.00 | 0.00 | 2.54 | 28 | 1013.1 |
| 20260502200443 | 18 | 228 | 0.0 | 0.0 | 0.00 | 0.00 | 2.54 | 28 | 1013.1 |
| 20260502195925 | 18 | 230 | 0.0 | 0.0 | 0.00 | 0.00 | 2.54 | 28 | 1012.9 |
| 20260502195409 | 18 | 232 | 0.0 | 0.0 | 0.00 | 0.00 | 2.54 | 28 | 1013.1 |
| 20260502194852 | 18 | 230 | 0.0 | 0.0 | 0.00 | 0.00 | 2.54 | 28 | 1012.7 |
| 20260502194336 | 19 | 228 | 0.0 | 0.0 | 0.00 | 0.00 | 2.54 | 26 | 1013.0 |
| 20260502193819 | 19 | 229 | 0.0 | 0.0 | 0.00 | 0.00 | 2.54 | 25 | 1012.7 |
| 20260502193303 | 19 | 230 | 0.0 | 0.0 | 0.00 | 0.00 | 2.54 | 25 | 1012.8 |
| 20260502192746 | 20 | 230 | 0.0 | 0.0 | 0.00 | 0.00 | 2.54 | 25 | 1012.7 |
| 20260502192230 | 20 | 230 | 0.0 | 0.0 | 0.00 | 0.00 | 2.54 | 25 | 1012.5 |
| 20260502191713 | 20 | 236 | 0.0 | 0.0 | 0.00 | 0.00 | 2.54 | 25 | 1012.5 |
| 20260502191156 | 20 | 227 | 0.0 | 0.0 | 0.00 | 0.00 | 2.54 | 24 | 1012.7 |
| 20260502190640 | 20 | 226 | 0.0 | 0.0 | 0.00 | 0.00 | 2.54 | 24 | 1012.6 |
| 20260502190123 | 20 | 225 | 0.0 | 0.0 | 0.00 | 0.00 | 2.54 | 23 | 1012.4 |
| 20260502185607 | 21 | 225 | 0.0 | 0.0 | 0.00 | 0.00 | 2.54 | 23 | 1012.6 |
| 20260502185050 | 21 | 225 | 0.0 | 0.0 | 0.00 | 0.00 | 2.54 | 23 | 1012.6 |
| 20260502184533 | 21 | 225 | 0.0 | 0.0 | 0.00 | 0.00 | 2.54 | 23 | 1012.6 |
| 20260502184017 | 21 | 225 | 0.0 | 0.0 | 0.00 | 0.00 | 2.54 | 22 | 1012.5 |
| 20260502183500 | 21 | 231 | 0.0 | 0.0 | 0.00 | 0.00 | 2.54 | 21 | 1012.3 |
| 20260502182944 | 22 | 232 | 0.0 | 0.0 | 0.00 | 0.00 | 2.54 | 21 | 1012.3 |
| 20260502182427 | 22 | 232 | 0.0 | 0.0 | 0.00 | 0.00 | 2.54 | 19 | 1012.3 |
| 20260502181910 | 22 | 229 | 0.0 | 0.0 | 0.00 | 0.00 | 2.54 | 19 | 1012.2 |
| 20260502181352 | 22 | 237 | 0.0 | 0.0 | 0.00 | 0.00 | 2.54 | 19 | 1012.4 |
| 20260502180835 | 22 | 229 | 0.0 | 0.0 | 0.00 | 0.00 | 2.54 | 19 | 1012.1 |
| 20260502180318 | 23 | 229 | 0.0 | 0.0 | 0.00 | 0.00 | 2.54 | 19 | 1012.1 |
| 20260502170514 | 25 | 228 | 0.0 | 0.0 | 0.00 | 0.00 | 2.54 | 14 | 1012.0 |
| 20260502163847 | 26 | 219 | 0.0 | 0.0 | 0.00 | 0.00 | 2.54 | 11 | 1012.1 |
| 20260502163328 | 26 | 236 | 0.0 | 0.0 | 0.00 | 0.00 | 2.54 | 10 | 1011.8 |
| 20260502162810 | 26 | 228 | 0.0 | 0.0 | 0.00 | 0.00 | 2.54 | 10 | 1012.1 |
| 20260502162253 | 26 | 224 | 0.0 | 0.0 | 0.00 | 0.00 | 2.54 | 11 | 1011.9 |
| 20260502161734 | 26 | 238 | 0.0 | 0.0 | 0.00 | 0.00 | 2.54 | 10 | 1012.1 |
| 20260502161218 | 26 | 236 | 0.0 | 0.0 | 0.00 | 0.00 | 2.54 | 10 | 1012.4 |
| 20260502160701 | 26 | 261 | 0.0 | 0.0 | 0.00 | 0.00 | 2.54 | 10 | 1012.2 |
| 20260502160145 | 26 | 216 | 0.0 | 0.0 | 0.00 | 0.00 | 2.54 | 10 | 1012.5 |
| 20260502151948 | 26 | 216 | 0.0 | 0.0 | 0.00 | 0.00 | 2.54 | 10 | 1012.8 |
| 20260502151431 | 26 | 224 | 0.0 | 0.0 | 0.00 | 0.00 | 2.54 | 10 | 1012.8 |
| 20260502150914 | 26 | 218 | 0.0 | 0.0 | 0.00 | 0.00 | 2.54 | 10 | 1012.8 |
| 20260502150358 | 26 | 223 | 0.0 | 0.0 | 0.00 | 0.00 | 2.54 | 10 | 1013.0 |
| 20260502130305 | 27 | 46 | 0.0 | 0.0 | 0.00 | 0.00 | 2.54 | 10 | 1014.9 |
| 20260502123636 | 27 | 198 | 0.0 | 0.0 | 0.00 | 0.00 | 2.54 | 10 | 1015.0 |
| 20260502123119 | 27 | 190 | 0.0 | 0.0 | 0.00 | 0.00 | 2.54 | 10 | 1015.1 |
| 20260502122602 | 27 | 200 | 0.0 | 0.0 | 0.00 | 0.00 | 2.54 | 10 | 1015.1 |
| 20260502122043 | 27 | 212 | 0.0 | 0.0 | 0.00 | 0.00 | 2.54 | 10 | 1015.3 |
| 20260502121526 | 27 | 241 | 0.0 | 0.0 | 0.00 | 0.00 | 2.54 | 10 | 1015.3 |
| 20260502121007 | 27 | 115 | 0.0 | 0.0 | 0.00 | 0.00 | 2.54 | 10 | 1015.6 |
| 20260502115428 | 27 | 199 | 0.0 | 0.0 | 0.00 | 0.00 | 2.54 | 12 | 1015.6 |
| 20260502114912 | 27 | 169 | 0.0 | 0.0 | 0.00 | 0.00 | 2.54 | 12 | 1015.9 |
| 20260502114355 | 26 | 215 | 0.0 | 0.0 | 0.00 | 0.00 | 2.54 | 10 | 1015.9 |
| 20260502113838 | 26 | 319 | 0.0 | 0.0 | 0.00 | 0.00 | 2.54 | 10 | 1015.8 |
| 20260502113321 | 27 | 193 | 0.0 | 0.0 | 0.00 | 0.00 | 2.54 | 10 | 1016.2 |
| 20260502112803 | 26 | 228 | 0.0 | 0.0 | 0.00 | 0.00 | 2.54 | 10 | 1016.1 |
| 20260502112246 | 26 | 234 | 0.0 | 0.0 | 0.00 | 0.00 | 2.54 | 10 | 1016.3 |
| 20260502111729 | 26 | 222 | 0.0 | 0.0 | 0.00 | 0.00 | 2.54 | 10 | 1016.2 |
| 20260502111213 | 26 | 203 | 0.0 | 0.0 | 0.00 | 0.00 | 2.54 | 10 | 1016.3 |
| 20260502110656 | 26 | 219 | 0.0 | 0.0 | 0.00 | 0.00 | 2.54 | 10 | 1016.5 |
| 20260502110140 | 26 | 185 | 0.0 | 0.0 | 0.00 | 0.00 | 2.54 | 10 | 1016.6 |
| 20260502105623 | 26 | 217 | 0.0 | 0.0 | 0.00 | 0.00 | 2.54 | 10 | 1016.4 |
| 20260502105107 | 26 | 228 | 0.0 | 0.0 | 0.00 | 0.00 | 2.54 | 10 | 1016.7 |
| 20260502104550 | 26 | 212 | 0.0 | 0.0 | 0.00 | 0.00 | 2.54 | 10 | 1016.8 |
| 20260502104034 | 26 | 238 | 0.0 | 0.0 | 0.00 | 0.00 | 2.54 | 10 | 1016.8 |
| 20260502103517 | 26 | 217 | 0.0 | 0.0 | 0.00 | 0.00 | 2.54 | 11 | 1017.0 |
| 20260502103000 | 26 | 300 | 0.0 | 0.0 | 0.00 | 0.00 | 2.54 | 10 | 1016.9 |
| 20260502102444 | 26 | 212 | 0.0 | 0.0 | 0.00 | 0.00 | 2.54 | 10 | 1017.1 |
| 20260502101928 | 26 | 318 | 0.0 | 0.0 | 0.00 | 0.00 | 2.54 | 10 | 1017.1 |
| 20260502101411 | 26 | 222 | 0.0 | 0.0 | 0.00 | 0.00 | 2.54 | 10 | 1017.2 |
| 20260502100854 | 26 | 238 | 0.0 | 0.0 | 0.00 | 0.00 | 2.54 | 12 | 1017.1 |
| 20260502100338 | 26 | 227 | 0.0 | 0.0 | 0.00 | 0.00 | 2.54 | 10 | 1017.2 |
| 20260502091052 | 24 | 222 | 0.0 | 0.0 | 0.00 | 0.00 | 2.54 | 11 | 1017.8 |
| 20260502090535 | 23 | 219 | 0.0 | 0.0 | 0.00 | 0.00 | 2.54 | 12 | 1017.8 |
| 20260502071444 | 17 | 223 | 0.0 | 0.0 | 0.00 | 0.00 | 2.54 | 21 | 1018.8 |
| 20260502070928 | 17 | 212 | 0.0 | 0.0 | 0.00 | 0.00 | 2.54 | 23 | 1019.0 |
| 20260502070411 | 16 | 224 | 0.0 | 0.0 | 0.00 | 0.00 | 2.54 | 17 | 1018.9 |
| 20260502065855 | 16 | 223 | 0.0 | 0.0 | 0.00 | 0.00 | 2.54 | 19 | 1018.7 |
| 20260502065338 | 15 | 219 | 0.0 | 0.0 | 0.00 | 0.00 | 2.54 | 20 | 1018.7 |
| 20260502064821 | 14 | 235 | 0.0 | 0.0 | 0.00 | 0.00 | 2.54 | 22 | 1018.9 |
| 20260502064304 | 13 | 229 | 0.0 | 0.0 | 0.00 | 0.00 | 2.54 | 22 | 1018.9 |
| 20260502063745 | 12 | 229 | 0.0 | 0.0 | 0.00 | 0.00 | 2.54 | 21 | 1018.9 |
| 20260502063228 | 12 | 229 | 0.0 | 0.0 | 0.00 | 0.00 | 2.54 | 23 | 1018.8 |
| 20260502062711 | 11 | 222 | 0.0 | 0.0 | 0.00 | 0.00 | 2.54 | 25 | 1018.7 |
| 20260502062154 | 10 | 227 | 0.0 | 0.0 | 0.00 | 0.00 | 2.54 | 28 | 1018.8 |
| 20260502061635 | 10 | 229 | 0.0 | 0.0 | 0.00 | 0.00 | 2.54 | 29 | 1018.9 |
| 20260502061118 | 10 | 231 | 0.0 | 0.0 | 0.00 | 0.00 | 2.54 | 29 | 1019.0 |
| 20260502060601 | 10 | 228 | 0.0 | 0.0 | 0.00 | 0.00 | 2.54 | 29 | 1018.8 |
| 20260502060044 | 10 | 233 | 0.0 | 0.0 | 0.00 | 0.00 | 2.54 | 31 | 1019.1 |
| 20260502055527 | 9 | 231 | 0.0 | 0.0 | 0.00 | 0.00 | 2.54 | 31 | 1019.0 |
| 20260502055008 | 9 | 232 | 0.0 | 0.0 | 0.00 | 0.00 | 2.54 | 31 | 1019.1 |
| 20260502054452 | 9 | 232 | 0.0 | 0.0 | 0.00 | 0.00 | 2.54 | 32 | 1019.2 |
| 20260502053935 | 8 | 229 | 0.0 | 0.0 | 0.00 | 0.00 | 2.54 | 33 | 1019.0 |
| 20260502053419 | 8 | 229 | 0.0 | 0.0 | 0.00 | 0.00 | 2.54 | 33 | 1018.8 |
| 20260502052902 | 8 | 229 | 0.0 | 0.0 | 0.00 | 0.00 | 2.54 | 34 | 1019.0 |
| 20260502052346 | 8 | 231 | 0.0 | 0.0 | 0.00 | 0.00 | 2.54 | 33 | 1018.8 |
| 20260502051829 | 8 | 231 | 0.0 | 0.0 | 0.00 | 0.00 | 2.54 | 33 | 1018.9 |
| 20260502051313 | 8 | 232 | 0.0 | 0.0 | 0.00 | 0.00 | 2.54 | 33 | 1018.5 |
| 20260502050756 | 8 | 231 | 0.0 | 0.0 | 0.00 | 0.00 | 2.54 | 34 | 1018.9 |
| 20260502050240 | 8 | 232 | 0.0 | 0.0 | 0.00 | 0.00 | 2.54 | 35 | 1018.8 |
| 20260502045723 | 7 | 226 | 0.0 | 0.0 | 0.00 | 0.00 | 2.54 | 35 | 1018.9 |
| 20260502045207 | 7 | 226 | 0.0 | 0.0 | 0.00 | 0.00 | 2.54 | 35 | 1018.7 |
| 20260502044650 | 7 | 226 | 0.0 | 0.0 | 0.00 | 0.00 | 2.54 | 35 | 1018.8 |
| 20260502044133 | 7 | 226 | 0.0 | 0.0 | 0.00 | 0.00 | 2.54 | 36 | 1018.6 |
| 20260502043616 | 7 | 226 | 0.0 | 0.0 | 0.00 | 0.00 | 2.54 | 36 | 1018.8 |
| 20260502043059 | 7 | 226 | 0.0 | 0.0 | 0.00 | 0.00 | 2.54 | 36 | 1018.7 |
| 20260502042542 | 7 | 226 | 0.0 | 0.0 | 0.00 | 0.00 | 2.54 | 36 | 1018.8 |
| 20260502042026 | 7 | 226 | 0.0 | 0.0 | 0.00 | 0.00 | 2.54 | 36 | 1018.8 |
| 20260502041509 | 7 | 226 | 0.0 | 0.0 | 0.00 | 0.00 | 2.54 | 36 | 1018.6 |
| 20260502035446 | 7 | 229 | 0.0 | 0.0 | 0.00 | 0.00 | 2.54 | 36 | 1018.4 |
| 20260502034929 | 7 | 229 | 0.0 | 0.0 | 0.00 | 0.00 | 2.54 | 36 | 1018.9 |
| 20260502034412 | 7 | 230 | 0.0 | 0.0 | 0.00 | 0.00 | 2.54 | 35 | 1018.6 |
| 20260502033855 | 7 | 230 | 0.0 | 0.0 | 0.00 | 0.00 | 2.54 | 35 | 1018.6 |
| 20260502033337 | 7 | 229 | 0.0 | 0.0 | 0.00 | 0.00 | 2.54 | 35 | 1018.6 |
| 20260502032820 | 7 | 229 | 0.0 | 0.0 | 0.00 | 0.00 | 2.54 | 35 | 1018.6 |
| 20260502032305 | 7 | 230 | 0.0 | 0.0 | 0.00 | 0.00 | 2.54 | 35 | 1018.9 |
| 20260502031744 | 8 | 231 | 0.0 | 0.0 | 0.00 | 0.00 | 2.54 | 35 | 1018.8 |
| 20260502031227 | 8 | 231 | 0.0 | 0.0 | 0.00 | 0.00 | 2.54 | 35 | 1018.8 |
| 20260502030711 | 8 | 229 | 0.0 | 0.0 | 0.00 | 0.00 | 2.54 | 35 | 1019.1 |
| 20260502030154 | 8 | 230 | 0.0 | 0.0 | 0.00 | 0.00 | 2.54 | 35 | 1018.6 |
| 20260502025637 | 8 | 231 | 0.0 | 0.0 | 0.00 | 0.00 | 2.54 | 35 | 1018.9 |
| 20260502025118 | 8 | 231 | 0.0 | 0.0 | 0.00 | 0.00 | 2.54 | 35 | 1018.7 |
| 20260502024601 | 8 | 231 | 0.0 | 0.0 | 0.00 | 0.00 | 2.54 | 35 | 1018.7 |
| 20260502024045 | 8 | 230 | 0.0 | 0.0 | 0.00 | 0.00 | 2.54 | 35 | 1018.5 |
| 20260502023027 | 8 | 231 | 0.0 | 0.0 | 0.00 | 0.00 | 2.54 | 35 | 1018.6 |
| 20260502022510 | 8 | 231 | 0.0 | 0.0 | 0.00 | 0.00 | 2.54 | 35 | 1018.7 |
| 20260502021452 | 8 | 231 | 0.0 | 0.0 | 0.00 | 0.00 | 2.54 | 35 | 1018.7 |
| 20260502020936 | 8 | 230 | 0.0 | 0.0 | 0.00 | 0.00 | 2.54 | 35 | 1018.5 |
| 20260502020419 | 8 | 231 | 0.0 | 0.0 | 0.00 | 0.00 | 2.54 | 35 | 1018.9 |
| 20260502015903 | 8 | 230 | 0.0 | 0.0 | 0.00 | 0.00 | 2.54 | 35 | 1018.8 |
| 20260502015346 | 8 | 230 | 0.0 | 0.0 | 0.00 | 0.00 | 2.54 | 35 | 1018.8 |
| 20260502014830 | 8 | 231 | 0.0 | 0.0 | 0.00 | 0.00 | 2.54 | 35 | 1018.8 |
| 20260502014313 | 8 | 231 | 0.0 | 0.0 | 0.00 | 0.00 | 2.54 | 35 | 1018.7 |
| 20260502013756 | 8 | 230 | 0.0 | 0.0 | 0.00 | 0.00 | 2.54 | 35 | 1018.6 |
| 20260502013240 | 8 | 230 | 0.0 | 0.0 | 0.00 | 0.00 | 2.54 | 35 | 1018.8 |
| 20260502012723 | 8 | 230 | 0.0 | 0.0 | 0.00 | 0.00 | 2.54 | 35 | 1018.7 |
| 20260502012207 | 8 | 231 | 0.0 | 0.0 | 0.00 | 0.00 | 2.54 | 35 | 1018.7 |
| 20260502011650 | 8 | 230 | 0.0 | 0.0 | 0.00 | 0.00 | 2.54 | 35 | 1018.9 |
| 20260502011134 | 8 | 230 | 0.0 | 0.0 | 0.00 | 0.00 | 2.54 | 35 | 1018.9 |
| 20260502010618 | 8 | 231 | 0.0 | 0.0 | 0.00 | 0.00 | 2.54 | 34 | 1018.9 |
| 20260502010101 | 8 | 231 | 0.0 | 0.0 | 0.00 | 0.00 | 2.54 | 33 | 1018.9 |
| 20260502005544 | 9 | 230 | 0.0 | 0.0 | 0.00 | 0.00 | 2.54 | 33 | 1018.8 |
| 20260502005028 | 9 | 230 | 0.0 | 0.0 | 0.00 | 0.00 | 2.54 | 33 | 1018.9 |
| 20260502003508 | 9 | 232 | 0.0 | 0.0 | 0.00 | 0.00 | 2.54 | 33 | 1018.9 |
| 20260502002450 | 9 | 231 | 0.0 | 0.0 | 0.00 | 0.00 | 2.54 | 33 | 1018.9 |
| 20260502001933 | 10 | 231 | 0.0 | 0.0 | 0.00 | 0.00 | 2.54 | 33 | 1018.9 |
| 20260502001416 | 10 | 234 | 0.0 | 0.0 | 0.00 | 0.00 | 2.54 | 33 | 1019.0 |
| 20260502000859 | 10 | 239 | 0.0 | 0.0 | 0.00 | 0.00 | 2.54 | 32 | 1019.0 |
| 20260502000343 | 10 | 224 | 0.0 | 0.0 | 0.00 | 0.00 | 2.54 | 32 | 1018.9 |
| 20260501235826 | 10 | 220 | 0.0 | 0.0 | 0.00 | 0.00 | 2.54 | 33 | 1019.0 |
| 20260501235309 | 10 | 225 | 0.0 | 0.0 | 0.00 | 0.00 | 2.54 | 33 | 1018.9 |
| 20260501234753 | 10 | 224 | 0.0 | 0.0 | 0.00 | 0.00 | 2.54 | 32 | 1019.0 |
| 20260501234236 | 10 | 225 | 0.0 | 0.0 | 0.00 | 0.00 | 2.54 | 31 | 1019.1 |
| 20260501233720 | 10 | 225 | 0.0 | 0.0 | 0.00 | 0.00 | 2.54 | 31 | 1019.1 |
| 20260501233203 | 10 | 225 | 0.0 | 0.0 | 0.00 | 0.00 | 2.54 | 31 | 1019.0 |
| 20260501232647 | 10 | 224 | 0.0 | 0.0 | 0.00 | 0.00 | 2.54 | 31 | 1018.9 |